Погода в Туркменбаши

Погода в Туркменбаши : погода сейчас, прогноз погоды и архив. Всё, что Вы хотите узнать о погоде в Туркменбаши!

Поиск расширенной информации на нашем сайте:

Полезная информация: Видеоэндоскопы mitcorp видеоэндоскоп.

Другие новости

Новости СМИ2

Главная страница сайта

Новости сайта

03.07.2017

Напоминаем, что на нашем специализированном сайте Метеоцентр.Азия вы можете получить высокодетализированные автоматические прогнозы погоды по пунктам России, СНГ и мира в авиационном формате (включающие направление и скорость ветра, видимость, явления погоды, количество и форму облачности, нижнюю и верхнюю границу облачности).

Рекомендуем: Рентгеновская пленка fomadux купить пленка рентгеновская купить в москве.

Погода в Туркменбаши - сегодня

Время (UTC), дата Ветер
(°,м/с) 
Видим.   Явления Облачность Т
(°С)
Тd
(°С)
f(%) Тe
(°С)
Pmin
(гПа)
dP
(гПа)
Po
(мм)
O2
(г/м3)
Тmin Tmax R s Состояние
почвы
09 18.07.17 150 (ЮВ) 20000 м    ясно 
+38.7 -1.9 8 +39  1013  -1  753  266           
12 18.07.17 140 (ЮВ) 20000 м    ясно 
+38.4 -1.9 8 +38  1011.8  -1.2  752  266           
15 18.07.17 280 (З) 20000 м    ясно 
+35.1 +2.7 13 +35  1011.3  -0.6  752  268    +39.1       
18 18.07.17 тихо ()   4000 м    ясно 
+27.8 +10.3 34 +29  1012.7  1.2  752  273    +39.1       
21 18.07.17 090 (В) 4000 м    ясно 
+29 -2.7 13 +29  1012.4  -0.3  752  274           
00 19.07.17 100 (В) 4000 м    ясно 
+26.8 -1.2 16 +27  1012.5  752  276           
03 19.07.17 090 (В) 20000 м    ясно 
+29 -0.9 14 +29  1012.5  0.1  752  274           
06 19.07.17 120 (ЮВ) 20000 м    ясно 
+35.2 -2.2 9 +35  1012.3  752  269  +25.7         
09 19.07.17 150 (ЮВ) 20000 м    ясно 
+37.1 -3 8 +37  1011.5  -0.7  752  267           
12 19.07.17 180 (Ю) 20000 м    ясно 
+38.2 -1.9 8 +38  1009.2  -2.3  750  265           
15 19.07.17 300 (СЗ) 20000 м    ясно 
+36.1 -1.9 9 +36  1007.7  -1.5  749  267    +38.4       
18 19.07.17 тихо ()   4000 м    ясно 
+28.7 +7.7 27 +29  1008.2  0.3  749  272    +38.4       
21 19.07.17 030 (СВ) 4000 м    ясно 
+25 +0.9 21 +25  1007.8  -0.6  749  276           
00 20.07.17 090 (В) 4000 м    ясно 
+29 +0.9 16 +29  1006.8  -0.8  748  272           
03 20.07.17 110 (В) 20000 м    ясно 
+30.6 +3.2 17 +31  1007.1  0.3  748  271           
06 20.07.17 110 (В) 20000 м    ясно 
+36.9 +1.5 11 +37  1007.4  0.5  749  266  +25         
09 20.07.17 150 (ЮВ) 20000 м    ясно 
+38.7 +3.6 11 +39  1006.7  -0.7  748  264           
12 20.07.17 230 (ЮЗ) 20000 м    ясно 
+38.9 +5 13 +39  1005.2  -1.4  747  263           
15 20.07.17 300 (СЗ) 20000 м    ясно 
+35.8 +5.8 16 +36  1005.4  0.1  747  265    +39.3       
18 20.07.17 тихо ()   4000 м    ясно 
+29.9 +2.1 17 +30  1006.8  1.2  748  271    +39.3       
21 20.07.17 100 (В) 4000 м    ясно 
+29.2 +3.2 19 +29  1007  0.2  748  272           
00 21.07.17 090 (В) 4000 м    ясно 
+29.4 +3.6 19 +29  1007.6  0.6  749  272           
03 21.07.17 090 (В) 20000 м    3/0 средняя 
[Ac trans]
+31.8 +4.5 18 +32  1008.3  0.7  749  270           
06 21.07.17 130 (ЮВ) 20000 м    ясно 
+38.1 +2.9 11 +38  1008.6  0.5  750  265  +26.7         
09 21.07.17 170 (Ю) 20000 м    ясно 
+39.2 +4.5 12 +39  1008.4  -0.2  749  263           
Время (UTC), дата Ветер
(°,м/с) 
Видим.   Явления Облачность Т
(°С)
Тd
(°С)
f(%) Тe
(°С)
Pmin
(гПа)
dP
(гПа)
Po
(мм)
O2
(г/м3)
Тmin Tmax R s Состояние
почвы

Для получения пояснительной информации подведите курсор к названию столбца.

ПОГОДА в Туркменбаши - архив

Всё, что Вы хотите узнать о погоде в Туркменбаши - удобно и подробно!

Выберите нужную дату (начиная с 1 января 2015* года) и нажмите кнопку "Найти".
Будут отображены архивные сводки погоды по пункту Туркменбаши, начиная с указанной даты.


Отображать данные в формате CSV (для использования в таблицах Excel)


Внимание! Наш архив погоды предназначен исключительно для личного некоммерческого использования в познавательных целях. Если Вам необходимы официальные справки о состоянии погоды (для производственных, юридических, коммерческих и т.п. целей), обращайтесь в органы Росгидромета.

*Примечание: данная дата относится к архиву по метеостанциям СССР (Россия, СНГ, Балтия).
Архив по метеостанциям Зарубежной Европы и Азии (кроме Китая) хранится 10 дней, по другим регионам земного шара (Китай, Африка, Америка, Австралия, Океания) - 1 день.

Туркменбаши - район местоположения метеостанции


Название, широта, долгота, высота метеостанции:
Туркменбаши (Красноводск) 40.1°ш. 53°д. -13 м над ур. моря [Туркменистан]

Дополнительная информация

В oтличие oт бoльшинства пoгoдных сайтoв мы публикуем пoдрoбную метеoинфoрмацию в детальнoм прoфессиoнальнoм фoрмате.

Характеристики температуры и влажнoсти вoздуха измеряются на высoте 2 м в тени вдали oт зданий и деревьев.
Скoрoсть ветра измеряется на высoте 10 м (на урoвне рoста челoвека скoрoсть ветра ниже в 1.5-2 раза). Если метеoстанция нахoдится в гoрoде или в лесу, тo скoрoсть ветра занижена на 2-4 м/с пo сравнению с oткрытым местoм. Скoрoсть ветра над акватoриями крупных рек и oзёр, а также на вершинах хoлмoв на 2-5 м/с выше, чем в oбычных услoвиях.
Атмoсфернoе давление в разных тoчках местнoсти мoжет значительнo oтличаться oт давления на метеoстанции, в зависимoсти oт услoвий рельефа (при пoдъёме на 10 м давление пoнижается примернo на 1 мм рт.ст.).